Location: ??????
(55.7522°N, 37.6156°E)
Time: 16:59:24
(UTC+00:00)

Cosmos 1818 - Pass Details

Date: 14 June 2025
Orbit: 776 x 795 km, 65.0° (Epoch: 12 July)

Event Time Altitude Azimuth Distance (km) Brightness Sun altitude
Rises 19:19:06 0° 214° (SW) 3,281 6.5 -6.2°
Reaches altitude 10° 19:21:31 10° 212° (SSW) 2,357 5.8 -6.4°
Maximum altitude 19:26:53 67° 131° (SE) 866 3.6 -6.7°
Drops below altitude 10° 19:32:19 10° 50° (NE) 2,376 6.2 -7.1°
Sets 19:34:45 0° 48° (NE) 3,309 7.0 -7.2°
